Regional Weather Roundup
Issued by NWS

Home | Current Version | Previous Version | Text Only | Print | Product List | Glossary Off
Versions: 1 2 3 4 5 6 7 8 9 10 11 12 13 14 15 16 17 18 19 20 21 22 23 24 25 26 27 28 29 30 31 32 33 34 35 36 37 38 39 40 41 42 43 44 45 46 47 48 49 50

000
ASUS43 KMPX 240310
RWRMN
WEATHER ROUNDUP FOR MINNESOTA
NATIONAL WEATHER SERVICE TWIN CITIES/CHANHASSEN MN
1000 PM CDT SAT MAY 23 2015


NOTE: "FAIR" INDICATES FEW OR NO CLOUDS BELOW 12,000 FEET WITH NO
SIGNIFICANT WEATHER AND/OR OBSTRUCTIONS TO VISIBILITY. N/A MEANS
CURRENT SKY AND/OR WEATHER CONDITIONS ARE NOT AVAILABLE.

MNZ060>063-068>070-240400-
   Twin Cities Metro

CITY           SKY/WX    TMP DP  RH WIND       PRES   REMARKS
TWIN CITIES    MOCLDY    64  46  52 E9        30.13S
ST PAUL        MOCLDY    62  47  57 E5        30.14S
CRYSTAL        CLOUDY    63  49  60 E6        30.12S
BLAINE         CLOUDY    61  54  77 NE5       30.14S
LAKEVILLE      MOCLDY    61  46  59 CALM      30.14R
EDEN PRAIRIE   MOCLDY    62  47  57 E7        30.12S
SOUTH ST PAUL  MOCLDY    63  45  51 NE6       30.13S
LAKE ELMO      CLOUDY    61  50  67 NE6       30.15S
$$
MNZ001>005-007-008-013>017-022>024-027-028-240400-
   Northwest Minnesota

CITY           SKY/WX    TMP DP  RH WIND       PRES   REMARKS
BEMIDJI        CLEAR     61  43  51 CALM      30.14R
HALLOCK        PTCLDY    64  45  48 S8        30.08R
ROSEAU         CLEAR     64  46  52 SW6       30.09R
WARROAD        CLEAR     63  46  55 SW7       30.09R
THIEF RVR FALL MOCLDY    64  43  45 SW8       30.12R
CROOKSTON      MOCLDY    61  43  51 SW8       30.12R
FOSSTON        PTCLDY    57  43  58 S6        30.14R
DETROIT LAKES  CLEAR     59  45  58 CALM      30.16R
MOORHEAD       CLEAR     63  48  59 S3        30.13R
PARK RAPIDS    CLEAR     62  44  51 CALM      30.15R
MAHNOMEN       FAIR      58  44  61 S6        30.14R
$$
MNZ006-009>011-018-025>026-240400-
   North Central Minnesota

CITY           SKY/WX    TMP DP  RH WIND       PRES   REMARKS
BAUDETTE       CLEAR     62  44  51 SW5       30.09R
FLAG ISLAND    CLEAR     68  37  32 SW7       30.06R
INTL FALLS     CLEAR     53  43  68 SW3       30.09R
WASKISH        CLEAR     61  45  55 CALM      30.11R
BIG FORK       CLEAR     61  45  55 SW8       30.14R
LONGVILLE      CLEAR     54  46  76 CALM      30.15R
GRAND RAPIDS   CLEAR     57  43  58 CALM      30.15R
CRANE LAKE     PTCLDY    54  45  71 S3        30.11R
COOK           CLEAR     64  41  42 SW6       30.13R
WALKER         FAIR      56  43  61 CALM      30.15R
$$
MNZ012-019>021-037-240400-
   Northeast Minnesota

CITY           SKY/WX    TMP DP  RH WIND       PRES   REMARKS
DULUTH         PTCLDY    62  42  47 W3        30.15S
ELY            PTCLDY    64  39  39 SW6       30.12R
HIBBING        CLEAR     56  42  59 CALM      30.14R
EVELETH        CLEAR     59  43  55 SW6       30.15S
DULUTH HARBOR  CLEAR     64  48  55 SW6       30.14S
TWO HARBORS    CLEAR     63  48  59 W5        30.13R
GRAND MARAIS     N/A     52  39  61 W8        30.09F
G MARAIS ARPRT PTCLDY    57  37  47 S3        30.13F
$$
MNZ029>031-032-039>041-046>048-054>057-064-240400-
   West Central Minnesota

CITY           SKY/WX    TMP DP  RH WIND       PRES   REMARKS
FERGUS FALLS   CLOUDY    63  46  55 CALM      30.13S
WHEATON        CLOUDY    61  48  63 E6        30.13S
MORRIS         CLOUDY    64  48  55 E8        30.11S
ALEXANDRIA     CLOUDY    62  46  55 E6        30.15S
ELBOW LAKE     CLOUDY    63  49  60 E3        30.13S
WADENA         PTCLDY    57  45  62 CALM      30.14S
GLENWOOD       CLOUDY    61  46  59 NE7       30.14S
APPLETON       CLOUDY    64  46  52 E7        30.11R
BENSON         CLOUDY    63  45  51 CALM      30.12R
ORTONVILLE     CLOUDY    63  48  59 E7        30.11R
MADISON        CLOUDY    63  46  55 E8        30.10R
WILLMAR        FAIR      63  48  59 E8        30.14R
$$
MNZ033>034-036-042>043-049>051-058-059-240400-
   Central Minnesota

CITY           SKY/WX    TMP DP  RH WIND       PRES   REMARKS
ST CLOUD       CLOUDY    62  47  57 CALM      30.13F
SAUK CENTRE    CLOUDY    60  48  64 NE5       30.14S
PAYNESVILLE    CLOUDY    60  45  57 NE7       30.14R
AITKIN         PTCLDY    54  46  76 CALM      30.15R
PINE RIVER     CLEAR     55  46  71 CALM      30.19R
BRAINERD       MOCLDY    55  47  74 CALM      30.16R
STAPLES        CLOUDY    59  45  58 CALM      30.15S
LONG PRAIRIE   CLOUDY    61  46  59 CALM      30.15S
LITTLE FALLS   CLOUDY    61  45  55 CALM      30.15R
LITCHFIELD     CLOUDY    61  50  67 E7        30.14R
BUFFALO        CLOUDY    60  50  69 NE3       30.14S
MAPLE LAKE     CLOUDY    60  51  71 E3        30.14S
$$
MNZ037-044-045-052-053-240400-
   East Central Minnesota

CITY           SKY/WX    TMP DP  RH WIND       PRES   REMARKS
PRINCETON      DRIZZLE   63  48  59 NE3       30.14S
MORA           CLOUDY    59  46  63 CALM      30.17S
CAMBRIDGE      CLOUDY    64  48  55 CALM      30.13S
RUSH CITY      CLOUDY    61  48  63 CALM      30.15S
MOOSE LAKE     PTCLDY    54  43  66 CALM      30.15R
HINCKLEY       CLOUDY    55  50  82 CALM      30.16R
CLOQUET        PTCLDY    57  43  58 SW3       30.16R
MCGREGOR       PTCLDY    59  43  55 CALM      30.16R
$$
MNZ071>073-080-081-089-090-097-098-240400-
   Southwest Minnesota

CITY           SKY/WX    TMP DP  RH WIND       PRES   REMARKS
MONTEVIDEO     CLOUDY    63  48  59 SE9       30.12R
GRANITE FALLS  CLOUDY    62  49  62 E6        30.13R
CANBY          CLOUDY    63  48  59 E8        30.12R
MARSHALL       CLOUDY    63  48  59 E7        30.09S
REDWOOD FALLS  CLOUDY    62  49  62 NE6       30.10S
OLIVIA         CLOUDY    59  45  58 E9        30.11R
PIPESTONE      CLOUDY    64  52  63 SE2       30.10R
WINDOM         CLOUDY    63  48  59 CALM      30.11R
WORTHINGTON    CLOUDY    63  48  59 SE5       30.11R
JACKSON        CLOUDY    64  52  63 S6        30.12R
TRACY          CLOUDY    65  49  56 S3        30.10R
SLAYTON        CLOUDY    62  48  60 CALM      30.11R
$$
MNZ065>067-074>077-082>085-091>093-240400-
   South Central Minnesota

CITY           SKY/WX    TMP DP  RH WIND       PRES   REMARKS
MANKATO        CLOUDY    64  54  68 E5        30.12R
NEW ULM        CLOUDY    64  50  59 SE3       30.11R
ST JAMES       CLOUDY    66  50  55 S8        30.12R
FAIRMONT       CLOUDY    64  48  55 SE8       30.11R
GLENCOE        CLOUDY    62  51  66 E6        30.13R
FARIBAULT      MOCLDY    63  57  82 S3        30.14R
OWATONNA       CLOUDY    66  48  52 CALM      30.13R
WASECA         CLOUDY    63  50  63 N3        30.13R
ALBERT LEA     CLOUDY    64  50  59 CALM      30.12R
$$
MNZ078>079-086>088-094>096-240400-
   Southeast Minnesota

CITY           SKY/WX    TMP DP  RH WIND       PRES   REMARKS
ROCHESTER      MOCLDY    63  47  55 SE7       30.15R
RED WING       CLOUDY    64  45  48 SE7       30.12R
STANTON        CLOUDY    64  47  53 N5        30.12R
DODGE CENTER   MOCLDY    64  46  52 S8        30.14R
WINONA         CLOUDY    63  54  72 CALM      30.14S
AUSTIN         CLOUDY    64  48  55 CALM      30.12S
PRESTON        CLOUDY    64  46  52 CALM      30.15S
$$
ABBREVIATIONS USED IN REMARKS
   TC - TEMPERATURES IN CELSIUS
  WCI - WIND CHILL INDEX
   HX - HEAT INDEX
  VSB - VISIBILITY
$$



USA.gov is the U.S. government's official web portal to all federal, state and local government web resources and services.